QPF
0.00 0.00 0.00 0.00 0.00 0.00 0.01 0.01 0.01 0.01 0.01 0.01 0.01 0.01 0.01 0.01 0.01 0.02 0.03 0.03 0.03 0.02 0.02 0.02 0.03 0.01 0.01 0.02 0.02 0.03 0.03 0.04 0.03 0.02 0.01 0.00 0.00 0.01 0.01 0.01 0.01 0.01 0.01
0.00 0.00 0.00 0.00 0.00 0.00 0.00 0.01 0.01 0.01 0.01 0.01 0.00 0.00 0.01 0.02 0.01 0.01 0.02 0.02 0.02 0.02 0.03 0.04 0.04 0.02 0.02 0.03 0.03 0.03 0.03 0.03 0.03 0.02 0.01 0.01 0.01 0.01 0.01 0.01 0.01 0.01 0.02
0.00 0.00 0.00 0.00 0.00 0.00 0.01 0.01 0.01 0.01 0.01 0.01 0.00 0.01 0.00 0.01 0.01 0.01 0.01 0.01 0.02 0.02 0.03 0.03 0.03 0.04 0.04 0.02 0.02 0.02 0.02 0.02 0.03 0.02 0.01 0.02 0.02 0.01 0.01 0.01 0.01 0.01 0.02
0.00 0.00 0.00 0.00 0.00 0.01 0.01 0.01 0.01 0.01 0.01 0.01 0.01 0.00 0.01 0.00 0.01 0.01 0.02 0.02 0.02 0.02 0.02 0.02 0.02 0.02 0.03 0.02 0.01 0.01 0.01 0.02 0.02 0.02 0.01 0.02 0.03 0.01 0.00 0.01 0.01 0.01 0.02
0.00 0.00 0.00 0.00 0.00 0.00 0.01 0.01 0.01 0.01 0.02 0.01 0.01 0.01 0.01 0.01 0.01 0.02 0.03 0.03 0.03 0.04 0.03 0.03 0.03 0.03 0.03 0.03 0.02 0.02 0.02 0.02 0.02 0.02 0.02 0.02 0.02 0.02 0.00 0.01 0.02 0.01 0.01
0.00 0.00 0.00 0.00 0.01 0.00 0.01 0.01 0.02 0.02 0.01 0.02 0.02 0.02 0.01 0.01 0.02 0.03 0.05 0.04 0.03 0.04 0.04 0.04 0.04 0.04 0.04 0.04 0.03 0.02 0.02 0.02 0.02 0.02 0.02 0.03 0.02 0.01 0.01 0.01 0.02 0.02 0.01
0.00 0.00 0.01 0.01 0.02 0.01 0.01 0.01 0.02 0.02 0.02 0.03 0.03 0.03 0.02 0.02 0.02 0.02 0.04 0.03 0.03 0.03 0.03 0.04 0.04 0.03 0.03 0.03 0.03 0.02 0.01 0.01 0.01 0.01 0.01 0.02 0.02 0.01 0.01 0.01 0.03 0.04 0.01
0.00 0.01 0.01 0.01 0.01 0.01 0.01 0.02 0.02 0.02 0.03 0.04 0.05 0.05 0.03 0.03 0.03 0.03 0.03 0.02 0.03 0.02 0.03 0.03 0.03 0.03 0.03 0.03 0.04 0.03 0.01 0.01 0.01 0.00 0.00 0.00 0.01 0.01 0.01 0.02 0.03 0.07 0.04
0.01 0.01 0.01 0.01 0.01 0.01 0.01 0.02 0.03 0.02 0.02 0.03 0.05 0.06 0.04 0.04 0.04 0.03 0.03 0.02 0.02 0.02 0.02 0.02 0.03 0.03 0.04 0.04 0.04 0.04 0.03 0.01 0.01 0.01 0.00 0.00 0.01 0.01 0.01 0.02 0.03 0.05 0.06
0.02 0.01 0.02 0.01 0.01 0.01 0.01 0.02 0.03 0.03 0.02 0.03 0.04 0.04 0.03 0.03 0.05 0.03 0.03 0.02 0.02 0.02 0.02 0.02 0.03 0.03 0.05 0.05 0.03 0.03 0.03 0.02 0.02 0.01 0.01 0.00 0.01 0.01 0.02 0.02 0.03 0.04 0.05
0.02 0.02 0.02 0.02 0.01 0.01 0.02 0.02 0.03 0.04 0.05 0.05 0.04 0.03 0.04 0.04 0.05 0.04 0.03 0.02 0.02 0.02 0.02 0.01 0.02 0.02 0.02 0.03 0.04 0.03 0.04 0.04 0.03 0.02 0.02 0.01 0.01 0.01 0.02 0.02 0.02 0.02 0.02
0.03 0.02 0.02 0.02 0.01 0.01 0.02 0.02 0.02 0.03 0.04 0.05 0.05 0.03 0.04 0.04 0.04 0.03 0.02 0.02 0.03 0.02 0.01 0.01 0.02 0.02 0.02 0.02 0.02 0.03 0.04 0.04 0.04 0.03 0.03 0.02 0.01 0.02 0.03 0.03 0.02 0.02 0.01
0.04 0.02 0.02 0.02 0.02 0.01 0.02 0.02 0.01 0.02 0.03 0.05 0.07 0.06 0.04 0.04 0.03 0.02 0.02 0.01 0.02 0.02 0.02 0.03 0.03 0.03 0.02 0.02 0.02 0.02 0.03 0.03 0.04 0.04 0.04 0.02 0.02 0.02 0.03 0.03 0.03 0.02 0.02
0.05 0.03 0.02 0.02 0.02 0.01 0.01 0.01 0.01 0.02 0.04 0.04 0.04 0.04 0.04 0.03 0.03 0.02 0.01 0.01 0.01 0.01 0.01 0.02 0.02 0.02 0.02 0.02 0.02 0.03 0.03 0.03 0.03 0.03 0.03 0.03 0.03 0.03 0.03 0.03 0.02 0.01 0.02
0.03 0.03 0.03 0.03 0.03 0.03 0.02 0.02 0.01 0.02 0.03 0.02 0.01 0.02 0.02 0.02 0.02 0.02 0.02 0.01 0.01 0.01 0.01 0.01 0.01 0.01 0.01 0.01 0.02 0.02 0.02 0.03 0.03 0.03 0.03 0.03 0.03 0.04 0.03 0.03 0.02 0.02 0.01
0.03 0.03 0.03 0.03 0.04 0.04 0.04 0.03 0.02 0.02 0.02 0.03 0.03 0.02 0.01 0.01 0.01 0.02 0.02 0.02 0.01 0.01 0.01 0.01 0.01 0.02 0.02 0.02 0.02 0.02 0.02 0.02 0.03 0.03 0.03 0.03 0.03 0.04 0.04 0.04 0.03 0.02 0.02
0.02 0.02 0.03 0.03 0.04 0.05 0.05 0.04 0.03 0.02 0.02 0.02 0.02 0.03 0.02 0.01 0.01 0.01 0.01 0.01 0.01 0.01 0.01 0.02 0.03 0.02 0.02 0.02 0.02 0.02 0.02 0.02 0.02 0.02 0.02 0.03 0.03 0.03 0.03 0.03 0.03 0.02 0.02
0.02 0.02 0.02 0.03 0.03 0.04 0.04 0.04 0.04 0.03 0.03 0.02 0.01 0.02 0.02 0.02 0.01 0.01 0.01 0.01 0.01 0.01 0.01 0.01 0.01 0.01 0.01 0.01 0.02 0.02 0.02 0.02 0.03 0.03 0.02 0.03 0.03 0.03 0.02 0.02 0.02 0.02 0.02
0.02 0.01 0.01 0.02 0.02 0.03 0.03 0.03 0.03 0.03 0.02 0.01 0.01 0.02 0.02 0.02 0.01 0.01 0.02 0.02 0.01 0.01 0.01 0.01 0.01 0.01 0.01 0.01 0.02 0.02 0.03 0.02 0.03 0.03 0.03 0.03 0.03 0.03 0.02 0.01 0.01 0.02 0.02
0.03 0.02 0.02 0.02 0.02 0.02 0.03 0.02 0.02 0.04 0.04 0.04 0.03 0.03 0.03 0.02 0.02 0.01 0.01 0.02 0.02 0.02 0.01 0.01 0.01 0.01 0.01 0.01 0.01 0.02 0.03 0.03 0.03 0.03 0.03 0.04 0.03 0.03 0.02 0.02 0.02 0.01 0.01
0.04 0.04 0.03 0.02 0.02 0.02 0.03 0.02 0.02 0.03 0.04 0.05 0.05 0.04 0.05 0.04 0.02 0.02 0.01 0.01 0.02 0.02 0.01 0.01 0.01 0.01 0.01 0.01 0.01 0.02 0.02 0.02 0.03 0.04 0.04 0.04 0.04 0.03 0.02 0.02 0.02 0.02 0.02
0.05 0.05 0.04 0.03 0.02 0.02 0.02 0.03 0.03 0.03 0.03 0.03 0.03 0.04 0.04 0.04 0.04 0.03 0.02 0.02 0.02 0.02 0.02 0.02 0.01 0.01 0.01 0.01 0.01 0.01 0.02 0.02 0.02 0.03 0.04 0.04 0.04 0.03 0.02 0.02 0.03 0.03 0.03
0.02 0.03 0.04 0.04 0.04 0.03 0.03 0.03 0.03 0.03 0.03 0.03 0.03 0.03 0.03 0.03 0.03 0.03 0.03 0.03 0.03 0.02 0.02 0.02 0.02 0.01 0.01 0.01 0.01 0.01 0.01 0.01 0.02 0.02 0.03 0.04 0.04 0.04 0.03 0.02 0.02 0.03 0.03
0.02 0.02 0.03 0.03 0.04 0.03 0.03 0.03 0.04 0.03 0.03 0.02 0.02 0.03 0.03 0.03 0.04 0.04 0.03 0.03 0.02 0.02 0.02 0.03 0.02 0.02 0.01 0.01 0.01 0.01 0.01 0.01 0.01 0.02 0.03 0.04 0.05 0.04 0.04 0.03 0.02 0.03 0.04
0.01 0.02 0.02 0.03 0.03 0.03 0.03 0.03 0.03 0.04 0.04 0.03 0.02 0.02 0.02 0.02 0.03 0.03 0.03 0.03 0.03 0.03 0.02 0.03 0.03 0.03 0.02 0.02 0.01 0.02 0.02 0.02 0.02 0.02 0.03 0.04 0.04 0.04 0.03 0.03 0.02 0.03 0.04
0.02 0.02 0.02 0.03 0.04 0.04 0.04 0.04 0.03 0.03 0.03 0.03 0.03 0.03 0.03 0.03 0.02 0.02 0.02 0.03 0.03 0.03 0.03 0.03 0.03 0.03 0.03 0.02 0.02 0.03 0.03 0.03 0.03 0.03 0.03 0.03 0.04 0.04 0.04 0.03 0.03 0.03 0.04
MSLP
1012.10 1012.45 1012.80 1013.07 1013.24 1013.28 1013.21 1013.07 1012.89 1012.72 1012.61 1012.57 1012.59 1012.64 1012.69 1012.71 1012.68 1012.61 1012.51 1012.42 1012.38 1012.42 1012.56 1012.79 1013.06 1013.34 1013.57 1013.69 1013.68 1013.53 1013.24 1012.87 1012.45 1012.03 1011.62 1011.26 1010.93 1010.61 1010.29 1009.95 1009.59 1009.23 1008.90
1012.12 1012.50 1012.87 1013.18 1013.39 1013.50 1013.51 1013.46 1013.38 1013.30 1013.27 1013.27 1013.31 1013.35 1013.36 1013.33 1013.24 1013.09 1012.91 1012.75 1012.65 1012.64 1012.73 1012.93 1013.18 1013.45 1013.68 1013.82 1013.84 1013.72 1013.48 1013.15 1012.77 1012.38 1012.01 1011.66 1011.33 1011.00 1010.66 1010.27 1009.85 1009.41 1008.97
1012.13 1012.55 1012.95 1013.31 1013.58 1013.75 1013.85 1013.90 1013.92 1013.95 1013.99 1014.06 1014.14 1014.20 1014.21 1014.14 1014.00 1013.79 1013.56 1013.33 1013.17 1013.11 1013.15 1013.30 1013.52 1013.77 1013.98 1014.12 1014.14 1014.05 1013.84 1013.55 1013.21 1012.86 1012.53 1012.21 1011.91 1011.59 1011.24 1010.83 1010.37 1009.86 1009.33
1012.10 1012.58 1013.04 1013.44 1013.77 1014.01 1014.19 1014.33 1014.45 1014.57 1014.71 1014.85 1014.99 1015.08 1015.10 1015.03 1014.88 1014.65 1014.38 1014.12 1013.91 1013.80 1013.80 1013.90 1014.08 1014.29 1014.47 1014.59 1014.61 1014.52 1014.32 1014.06 1013.76 1013.45 1013.15 1012.88 1012.61 1012.32 1011.98 1011.58 1011.09 1010.54 1009.94
1012.01 1012.57 1013.09 1013.56 1013.94 1014.24 1014.49 1014.70 1014.90 1015.10 1015.32 1015.54 1015.73 1015.88 1015.94 1015.90 1015.76 1015.54 1015.27 1015.01 1014.79 1014.65 1014.62 1014.68 1014.81 1014.97 1015.12 1015.20 1015.20 1015.09 1014.90 1014.64 1014.36 1014.07 1013.81 1013.57 1013.35 1013.10 1012.80 1012.42 1011.94 1011.37 1010.72
1011.84 1012.50 1013.10 1013.63 1014.06 1014.42 1014.71 1014.97 1015.22 1015.49 1015.77 1016.05 1016.30 1016.51 1016.63 1016.64 1016.55 1016.37 1016.14 1015.90 1015.69 1015.55 1015.50 1015.53 1015.63 1015.75 1015.84 1015.89 1015.84 1015.71 1015.49 1015.23 1014.95 1014.67 1014.43 1014.23 1014.04 1013.83 1013.58 1013.24 1012.79 1012.24 1011.58
1011.59 1012.36 1013.05 1013.64 1014.13 1014.52 1014.85 1015.14 1015.42 1015.72 1016.04 1016.37 1016.68 1016.94 1017.12 1017.20 1017.18 1017.07 1016.90 1016.70 1016.53 1016.41 1016.35 1016.37 1016.43 1016.51 1016.57 1016.56 1016.47 1016.30 1016.06 1015.77 1015.47 1015.19 1014.96 1014.77 1014.60 1014.44 1014.24 1013.95 1013.55 1013.03 1012.39
1011.28 1012.15 1012.94 1013.60 1014.13 1014.56 1014.91 1015.21 1015.51 1015.82 1016.16 1016.53 1016.88 1017.19 1017.43 1017.58 1017.64 1017.60 1017.50 1017.36 1017.23 1017.14 1017.09 1017.10 1017.15 1017.19 1017.21 1017.16 1017.03 1016.82 1016.54 1016.22 1015.89 1015.60 1015.35 1015.16 1015.01 1014.87 1014.71 1014.47 1014.13 1013.66 1013.06
1010.93 1011.91 1012.78 1013.51 1014.09 1014.55 1014.92 1015.24 1015.54 1015.87 1016.22 1016.60 1016.98 1017.33 1017.63 1017.84 1017.96 1017.99 1017.95 1017.87 1017.78 1017.72 1017.69 1017.70 1017.72 1017.75 1017.73 1017.65 1017.49 1017.25 1016.94 1016.59 1016.23 1015.90 1015.63 1015.42 1015.26 1015.13 1014.99 1014.80 1014.50 1014.09 1013.53
1010.59 1011.66 1012.60 1013.40 1014.03 1014.53 1014.92 1015.26 1015.58 1015.92 1016.28 1016.68 1017.09 1017.47 1017.80 1018.06 1018.22 1018.30 1018.31 1018.27 1018.21 1018.17 1018.15 1018.15 1018.17 1018.18 1018.15 1018.06 1017.88 1017.62 1017.28 1016.91 1016.52 1016.16 1015.85 1015.60 1015.42 1015.28 1015.13 1014.95 1014.69 1014.32 1013.80
1010.31 1011.43 1012.43 1013.28 1013.97 1014.51 1014.95 1015.32 1015.67 1016.04 1016.43 1016.84 1017.27 1017.68 1018.03 1018.31 1018.51 1018.61 1018.64 1018.62 1018.57 1018.53 1018.51 1018.52 1018.53 1018.53 1018.50 1018.41 1018.23 1017.97 1017.63 1017.24 1016.83 1016.43 1016.08 1015.78 1015.56 1015.37 1015.20 1015.01 1014.75 1014.39 1013.91
1010.11 1011.26 1012.29 1013.18 1013.92 1014.52 1015.01 1015.44 1015.84 1016.25 1016.68 1017.13 1017.58 1018.00 1018.37 1018.66 1018.86 1018.96 1018.99 1018.97 1018.92 1018.87 1018.84 1018.84 1018.85 1018.86 1018.84 1018.77 1018.61 1018.36 1018.04 1017.64 1017.21 1016.78 1016.38 1016.03 1015.74 1015.49 1015.27 1015.03 1014.75 1014.38 1013.89
1010.01 1011.15 1012.19 1013.10 1013.88 1014.54 1015.10 1015.60 1016.07 1016.55 1017.03 1017.53 1018.00 1018.44 1018.82 1019.10 1019.29 1019.38 1019.39 1019.35 1019.28 1019.21 1019.18 1019.17 1019.19 1019.21 1019.22 1019.17 1019.05 1018.84 1018.53 1018.15 1017.71 1017.25 1016.80 1016.38 1016.01 1015.68 1015.38 1015.08 1014.74 1014.33 1013.81
1009.99 1011.08 1012.11 1013.03 1013.85 1014.56 1015.19 1015.77 1016.33 1016.89 1017.44 1017.98 1018.50 1018.96 1019.33 1019.61 1019.78 1019.85 1019.83 1019.76 1019.67 1019.59 1019.54 1019.54 1019.57 1019.62 1019.66 1019.65 1019.57 1019.39 1019.12 1018.75 1018.31 1017.82 1017.32 1016.83 1016.38 1015.96 1015.57 1015.18 1014.77 1014.29 1013.72
1010.02 1011.05 1012.04 1012.95 1013.79 1014.55 1015.25 1015.92 1016.57 1017.20 1017.83 1018.42 1018.97 1019.45 1019.83 1020.10 1020.26 1020.30 1020.27 1020.18 1020.07 1019.98 1019.94 1019.94 1019.99 1020.07 1020.14 1020.18 1020.14 1020.01 1019.76 1019.41 1018.96 1018.45 1017.90 1017.34 1016.81 1016.30 1015.81 1015.33 1014.82 1014.27 1013.62
1010.06 1011.01 1011.95 1012.85 1013.69 1014.49 1015.25 1015.99 1016.72 1017.42 1018.11 1018.76 1019.34 1019.84 1020.23 1020.50 1020.64 1020.68 1020.64 1020.55 1020.45 1020.37 1020.33 1020.36 1020.44 1020.55 1020.65 1020.72 1020.72 1020.62 1020.39 1020.05 1019.59 1019.06 1018.46 1017.85 1017.24 1016.65 1016.07 1015.50 1014.91 1014.27 1013.55
1010.06 1010.95 1011.83 1012.70 1013.55 1014.37 1015.17 1015.97 1016.74 1017.51 1018.24 1018.93 1019.54 1020.05 1020.45 1020.72 1020.88 1020.93 1020.90 1020.83 1020.75 1020.70 1020.70 1020.76 1020.87 1021.01 1021.15 1021.24 1021.26 1021.17 1020.96 1020.61 1020.14 1019.58 1018.95 1018.29 1017.61 1016.95 1016.31 1015.66 1015.00 1014.29 1013.51
1010.01 1010.84 1011.67 1012.52 1013.35 1014.19 1015.01 1015.83 1016.64 1017.44 1018.19 1018.90 1019.53 1020.05 1020.46 1020.76 1020.94 1021.02 1021.03 1021.00 1020.97 1020.97 1021.02 1021.12 1021.26 1021.42 1021.58 1021.69 1021.72 1021.63 1021.41 1021.05 1020.57 1019.98 1019.32 1018.62 1017.91 1017.20 1016.50 1015.81 1015.10 1014.34 1013.50
1009.91 1010.69 1011.49 1012.31 1013.13 1013.96 1014.79 1015.61 1016.43 1017.22 1017.98 1018.69 1019.32 1019.85 1020.28 1020.61 1020.83 1020.96 1021.03 1021.07 1021.11 1021.17 1021.27 1021.42 1021.59 1021.78 1021.95 1022.06 1022.07 1021.97 1021.73 1021.35 1020.85 1020.24 1019.56 1018.84 1018.11 1017.37 1016.65 1015.94 1015.20 1014.42 1013.55
1009.76 1010.52 1011.31 1012.11 1012.91 1013.72 1014.53 1015.33 1016.13 1016.91 1017.65 1018.35 1018.97 1019.51 1019.97 1020.32 1020.59 1020.79 1020.94 1021.06 1021.18 1021.32 1021.48 1021.67 1021.88 1022.08 1022.24 1022.33 1022.33 1022.20 1021.93 1021.53 1021.01 1020.39 1019.70 1018.97 1018.24 1017.51 1016.79 1016.07 1015.33 1014.55 1013.68
1009.60 1010.36 1011.14 1011.93 1012.72 1013.50 1014.28 1015.05 1015.81 1016.55 1017.27 1017.94 1018.55 1019.10 1019.58 1019.98 1020.31 1020.58 1020.81 1021.02 1021.23 1021.44 1021.66 1021.89 1022.12 1022.32 1022.47 1022.54 1022.50 1022.34 1022.04 1021.62 1021.08 1020.45 1019.77 1019.05 1018.33 1017.62 1016.92 1016.23 1015.52 1014.76 1013.91
1009.47 1010.25 1011.03 1011.80 1012.57 1013.32 1014.06 1014.79 1015.50 1016.20 1016.88 1017.53 1018.14 1018.70 1019.20 1019.65 1020.05 1020.40 1020.71 1021.00 1021.28 1021.55 1021.82 1022.08 1022.32 1022.52 1022.65 1022.68 1022.61 1022.41 1022.09 1021.65 1021.11 1020.49 1019.82 1019.12 1018.43 1017.75 1017.09 1016.43 1015.76 1015.04 1014.23
1009.39 1010.19 1010.97 1011.73 1012.47 1013.19 1013.89 1014.57 1015.24 1015.90 1016.55 1017.18 1017.79 1018.37 1018.91 1019.40 1019.86 1020.28 1020.66 1021.02 1021.36 1021.68 1021.98 1022.25 1022.49 1022.66 1022.76 1022.77 1022.66 1022.44 1022.10 1021.65 1021.11 1020.51 1019.86 1019.20 1018.54 1017.91 1017.28 1016.67 1016.04 1015.37 1014.63
1009.37 1010.18 1010.96 1011.70 1012.41 1013.09 1013.75 1014.40 1015.04 1015.67 1016.30 1016.93 1017.54 1018.14 1018.71 1019.26 1019.77 1020.24 1020.68 1021.09 1021.46 1021.80 1022.11 1022.38 1022.60 1022.75 1022.81 1022.79 1022.65 1022.41 1022.07 1021.62 1021.10 1020.52 1019.91 1019.28 1018.67 1018.07 1017.49 1016.92 1016.34 1015.74 1015.06
1009.39 1010.19 1010.96 1011.68 1012.36 1013.01 1013.64 1014.26 1014.87 1015.49 1016.12 1016.76 1017.39 1018.02 1018.63 1019.21 1019.76 1020.27 1020.74 1021.17 1021.56 1021.90 1022.20 1022.44 1022.63 1022.74 1022.78 1022.72 1022.58 1022.33 1021.99 1021.56 1021.07 1020.52 1019.94 1019.36 1018.78 1018.22 1017.68 1017.16 1016.63 1016.08 1015.48
1009.41 1010.19 1010.93 1011.63 1012.28 1012.90 1013.51 1014.11 1014.72 1015.35 1015.99 1016.64 1017.30 1017.96 1018.60 1019.22 1019.80 1020.33 1020.81 1021.24 1021.61 1021.93 1022.20 1022.41 1022.55 1022.64 1022.65 1022.57 1022.42 1022.18 1021.85 1021.46 1021.00 1020.49 1019.96 1019.41 1018.87 1018.34 1017.84 1017.35 1016.86 1016.37 1015.84
Thickness
5707 5705 5702 5700 5698 5696 5693 5690 5689 5688 5686 5684 5682 5680 5678 5676 5675 5673 5671 5671 5670 5669 5669 5667 5666 5666 5664 5662 5660 5658 5656 5652 5646 5646 5648 5648 5647 5645 5642 5641 5639 5637 5635
5704 5701 5698 5697 5694 5692 5689 5687 5685 5684 5682 5680 5679 5676 5675 5672 5671 5669 5667 5667 5666 5665 5665 5664 5663 5662 5660 5659 5657 5655 5653 5651 5646 5642 5643 5643 5642 5641 5639 5638 5636 5633 5631
5700 5697 5694 5692 5689 5687 5685 5684 5682 5680 5678 5676 5674 5672 5670 5669 5667 5666 5664 5663 5663 5662 5662 5661 5660 5658 5655 5654 5653 5651 5649 5648 5645 5641 5639 5639 5638 5637 5635 5633 5632 5629 5627
5696 5692 5689 5687 5685 5683 5681 5679 5677 5675 5672 5670 5669 5668 5666 5664 5662 5661 5660 5659 5659 5659 5658 5658 5657 5655 5652 5651 5649 5647 5645 5642 5640 5638 5636 5634 5633 5632 5630 5626 5624 5624 5623
5691 5688 5685 5684 5682 5679 5676 5674 5672 5670 5668 5666 5664 5663 5661 5659 5657 5656 5654 5654 5654 5653 5653 5653 5652 5651 5650 5648 5646 5643 5641 5637 5635 5633 5631 5629 5627 5625 5624 5623 5619 5618 5617
5686 5683 5682 5680 5677 5673 5671 5669 5666 5664 5662 5661 5659 5657 5655 5654 5652 5651 5650 5649 5649 5648 5648 5647 5647 5646 5645 5644 5643 5641 5639 5635 5631 5629 5627 5625 5624 5623 5621 5620 5615 5612 5609
5682 5679 5677 5674 5670 5668 5666 5663 5660 5658 5657 5655 5654 5652 5649 5647 5647 5646 5645 5644 5644 5643 5643 5642 5642 5642 5640 5638 5637 5636 5634 5633 5631 5628 5625 5624 5623 5622 5618 5615 5612 5609 5606
5677 5674 5671 5668 5665 5662 5660 5657 5655 5653 5651 5649 5648 5646 5644 5643 5642 5641 5640 5639 5638 5638 5638 5637 5636 5634 5634 5632 5631 5629 5629 5628 5627 5625 5624 5623 5622 5620 5617 5613 5609 5606 5603
5671 5668 5665 5662 5659 5656 5653 5652 5650 5648 5646 5644 5643 5641 5639 5637 5636 5635 5634 5632 5631 5631 5632 5631 5630 5628 5629 5627 5624 5623 5622 5622 5622 5621 5621 5619 5618 5616 5613 5608 5603 5599 5595
5665 5663 5660 5657 5654 5651 5649 5647 5645 5643 5641 5639 5637 5635 5633 5632 5631 5629 5627 5625 5624 5624 5624 5625 5625 5623 5622 5621 5618 5617 5615 5615 5615 5614 5613 5613 5612 5610 5608 5604 5600 5595 5591
5661 5658 5655 5652 5649 5647 5645 5643 5640 5638 5635 5633 5631 5630 5629 5627 5625 5623 5621 5619 5617 5616 5616 5616 5617 5617 5615 5614 5613 5612 5611 5610 5608 5607 5606 5605 5604 5603 5601 5599 5597 5593 5589
5655 5652 5649 5647 5645 5643 5640 5637 5635 5632 5629 5627 5625 5624 5623 5622 5620 5617 5615 5613 5612 5610 5609 5610 5609 5609 5608 5608 5607 5606 5606 5604 5602 5600 5598 5598 5597 5596 5595 5593 5591 5589 5587
5647 5644 5643 5642 5640 5638 5635 5632 5629 5626 5624 5622 5619 5618 5616 5615 5614 5612 5610 5607 5606 5604 5604 5604 5603 5602 5601 5600 5600 5600 5598 5596 5595 5593 5591 5592 5593 5592 5590 5588 5585 5583 5581
5640 5638 5637 5635 5634 5632 5630 5628 5624 5622 5619 5617 5614 5612 5610 5609 5607 5605 5603 5601 5599 5597 5596 5596 5596 5596 5594 5593 5592 5592 5591 5590 5589 5587 5586 5587 5587 5585 5583 5581 5578 5576 5573
5633 5632 5631 5630 5628 5626 5624 5622 5620 5619 5617 5614 5612 5609 5606 5603 5603 5601 5597 5595 5593 5591 5589 5588 5587 5586 5586 5586 5586 5585 5585 5584 5583 5582 5581 5580 5580 5579 5577 5575 5573 5570 5567
5624 5624 5623 5622 5621 5619 5617 5615 5614 5613 5612 5610 5608 5605 5604 5602 5599 5596 5594 5591 5589 5586 5583 5582 5581 5581 5581 5581 5580 5579 5579 5579 5578 5577 5575 5574 5574 5572 5571 5569 5567 5565 5562
5616 5615 5614 5614 5613 5612 5610 5608 5605 5604 5604 5603 5602 5600 5598 5596 5594 5591 5588 5585 5583 5580 5577 5577 5577 5576 5576 5575 5575 5575 5574 5574 5573 5572 5570 5569 5568 5567 5565 5563 5560 5559 5557
5608 5607 5606 5605 5604 5604 5602 5602 5600 5598 5596 5595 5594 5593 5591 5589 5587 5585 5582 5578 5575 5574 5573 5573 5573 5572 5572 5571 5570 5570 5569 5569 5568 5567 5566 5565 5563 5562 5560 5558 5556 5554 5552
5599 5598 5597 5597 5596 5596 5595 5594 5593 5592 5591 5589 5587 5585 5584 5581 5580 5577 5575 5572 5571 5569 5569 5568 5568 5568 5567 5566 5565 5565 5564 5564 5563 5562 5561 5560 5559 5557 5555 5554 5552 5550 5547
5590 5590 5590 5589 5588 5588 5587 5586 5586 5585 5583 5582 5581 5579 5575 5572 5570 5569 5568 5568 5566 5565 5564 5563 5563 5562 5562 5561 5560 5558 5558 5558 5557 5556 5556 5555 5554 5552 5551 5549 5547 5545 5542
5582 5582 5581 5581 5581 5580 5579 5578 5577 5577 5576 5575 5574 5573 5570 5567 5565 5564 5562 5562 5561 5560 5558 5557 5556 5555 5555 5554 5553 5552 5552 5551 5550 5550 5549 5549 5548 5547 5546 5544 5542 5540 5538
5573 5573 5573 5573 5573 5572 5571 5570 5569 5568 5568 5567 5566 5565 5563 5561 5559 5558 5557 5556 5555 5554 5553 5551 5550 5549 5548 5547 5546 5545 5545 5544 5544 5544 5544 5543 5543 5542 5540 5538 5536 5534 5532
5563 5564 5563 5564 5564 5563 5563 5562 5562 5561 5560 5559 5558 5556 5554 5553 5552 5551 5550 5549 5548 5547 5546 5544 5543 5542 5542 5542 5541 5540 5539 5538 5538 5537 5537 5536 5535 5535 5534 5532 5531 5528 5526
5554 5554 5554 5554 5554 5554 5554 5554 5553 5552 5552 5551 5550 5548 5547 5546 5545 5544 5543 5542 5541 5540 5539 5538 5537 5536 5536 5535 5534 5534 5533 5533 5532 5531 5531 5530 5529 5528 5527 5526 5525 5523 5521
5545 5545 5545 5544 5545 5545 5545 5545 5545 5544 5544 5543 5542 5541 5539 5538 5537 5536 5535 5534 5533 5533 5532 5532 5531 5530 5530 5529 5528 5528 5527 5526 5525 5525 5524 5523 5522 5521 5520 5519 5518 5516 5515
5536 5537 5536 5536 5536 5536 5536 5536 5536 5535 5534 5533 5533 5532 5530 5529 5529 5528 5527 5526 5526 5525 5525 5524 5524 5523 5523 5522 5522 5521 5520 5519 5519 5518 5516 5515 5515 5514 5513 5512 5511 5510 5509